Total_Precipitation_Accumulation
1.91 2.28 3.21 4.07 4.46 3.84 3.18 2.68 2.34 2.34 1.99 1.51 1.11 1.17 1.58 1.97 2.44 2.99 3.13 2.80 2.09 1.85 2.11 2.89 3.52 3.28 3.05 3.00 2.95 3.13 3.17 2.95 2.77 2.67 2.63 2.23 2.10 2.07 1.98 1.88 1.84 1.78 1.78 1.74 1.80 1.86 1.74 1.64 1.64
1.63 2.67 3.79 4.56 4.19 3.22 2.90 2.58 2.51 2.22 1.61 1.22 0.92 0.98 1.22 1.19 1.05 1.88 3.20 3.10 2.04 1.74 1.84 2.28 3.20 3.11 2.95 3.13 3.07 3.09 3.14 3.08 2.92 2.73 2.43 2.12 2.11 2.16 2.18 2.19 2.11 1.97 1.93 1.99 1.98 1.97 1.83 1.74 1.72
1.80 3.10 3.94 4.24 3.13 2.79 2.90 2.70 2.47 1.78 1.25 1.08 0.98 0.85 1.07 1.42 1.42 1.96 2.86 2.34 1.69 1.65 1.79 2.44 3.04 2.86 2.73 2.84 2.99 3.10 3.22 3.19 3.10 2.79 2.30 2.10 2.06 2.05 2.12 2.24 2.18 2.07 1.99 2.00 1.99 1.87 1.77 1.76 1.72
2.17 3.30 3.54 3.20 2.65 2.28 2.36 2.54 2.14 1.74 1.40 0.97 0.95 0.95 0.96 1.54 1.79 1.85 1.89 1.72 1.49 1.55 1.66 2.16 2.75 2.70 2.57 2.66 3.05 3.00 2.91 2.88 2.82 2.59 2.31 2.12 2.13 2.03 2.09 2.16 2.08 1.99 1.83 1.78 1.81 1.77 1.67 1.68 1.67
2.82 3.50 3.39 2.81 2.44 2.26 2.16 2.09 1.91 1.93 1.78 1.27 1.00 1.11 1.40 1.94 2.06 1.96 1.76 1.62 1.47 1.52 1.47 1.76 2.31 2.41 2.44 2.62 2.89 2.83 2.67 2.60 2.43 2.29 2.17 2.04 2.07 2.05 2.02 1.90 1.72 1.67 1.65 1.65 1.80 1.80 1.62 1.64 1.67
3.31 3.34 3.36 2.97 2.54 2.36 2.25 1.96 1.74 1.75 1.61 1.31 1.10 1.32 1.93 2.56 2.53 2.42 1.91 1.80 1.73 1.48 1.38 1.51 1.93 2.10 2.13 2.29 2.70 2.91 2.65 2.60 2.37 2.14 2.06 2.01 1.95 1.90 1.80 1.62 1.55 1.56 1.65 1.72 1.70 1.66 1.58 1.64 1.68
3.38 3.25 3.10 2.66 2.57 2.63 2.39 1.78 1.73 1.68 1.53 1.25 1.06 1.36 2.00 2.90 2.76 2.36 1.92 1.67 1.73 1.57 1.43 1.41 1.43 1.56 1.83 2.16 2.31 2.58 2.66 2.57 2.36 2.02 1.93 1.93 1.75 1.59 1.55 1.58 1.64 1.57 1.60 1.60 1.55 1.50 1.54 1.67 1.77
2.51 2.85 2.93 2.82 2.74 2.93 2.13 1.55 1.43 1.45 1.40 0.90 0.90 1.32 1.83 2.44 2.35 2.19 1.85 1.63 1.60 1.45 1.36 1.26 1.19 1.26 1.39 1.63 1.89 2.15 2.43 2.33 2.13 1.94 1.93 1.91 1.69 1.51 1.49 1.48 1.71 1.70 1.61 1.63 1.57 1.49 1.49 1.58 1.72
2.23 2.83 3.24 3.17 2.68 2.57 1.79 1.70 1.36 1.18 1.13 0.98 0.92 1.06 1.35 1.49 1.64 1.82 1.78 1.64 1.58 1.33 1.23 1.18 1.10 1.15 1.24 1.31 1.44 1.67 1.84 1.93 1.75 1.54 1.61 1.49 1.27 1.17 1.26 1.31 1.67 1.80 1.86 1.81 1.71 1.66 1.60 1.50 1.51
2.43 2.93 3.02 2.40 1.86 1.82 1.71 1.63 1.38 1.48 1.50 1.27 1.12 1.05 1.32 1.48 1.53 1.74 1.74 1.67 1.56 1.41 1.23 1.10 1.09 1.09 1.12 1.10 1.35 1.55 1.37 1.37 1.35 1.31 1.21 1.15 1.18 1.23 1.06 1.20 1.54 1.54 1.60 1.64 1.63 1.61 1.43 1.16 1.04
1.80 2.24 2.12 1.78 1.31 1.28 1.40 1.23 1.06 1.49 1.72 1.38 1.27 1.22 1.35 1.57 1.58 1.57 1.66 1.56 1.36 1.28 1.17 1.04 1.08 1.04 0.95 1.03 1.18 1.39 1.45 1.46 1.48 1.40 1.35 1.18 1.06 1.01 0.90 0.92 1.06 1.11 1.20 1.19 1.26 1.27 1.08 0.92 0.91
1.53 1.52 1.50 1.52 1.12 1.21 1.33 1.10 1.16 1.32 1.42 1.16 1.10 1.18 1.38 1.49 1.51 1.45 1.49 1.47 1.24 1.16 1.22 1.06 1.02 0.98 0.87 0.77 0.83 0.98 1.05 1.11 1.14 1.22 1.28 1.24 1.21 1.13 0.98 1.00 1.07 1.10 1.09 1.23 1.23 1.24 1.12 0.97 0.84
1.62 1.58 1.35 1.30 1.15 1.16 1.22 1.11 1.14 1.33 1.12 1.01 1.14 1.30 1.53 1.56 1.52 1.39 1.28 1.26 1.26 1.27 1.20 1.12 1.07 1.04 1.01 0.95 0.87 0.81 0.83 0.91 0.97 1.07 1.09 1.15 1.17 1.15 1.11 1.06 1.16 1.15 1.14 1.21 1.18 1.04 1.06 1.04 0.93
1.42 1.47 1.49 1.41 1.29 1.13 1.27 1.16 1.18 1.49 1.23 1.11 1.16 1.34 1.52 1.54 1.48 1.36 1.27 1.22 1.15 1.23 1.29 1.24 1.13 1.12 1.01 0.97 0.98 0.99 0.92 0.94 0.98 1.05 0.98 0.97 1.03 0.99 1.06 1.09 1.19 1.12 1.15 1.23 1.13 1.08 1.12 1.14 1.04
1.20 1.62 1.76 1.54 1.39 1.27 1.31 1.54 1.46 1.44 1.29 1.28 1.28 1.31 1.47 1.54 1.44 1.32 1.24 1.26 1.17 1.14 1.25 1.34 1.29 1.26 1.13 1.05 1.06 1.06 1.01 0.93 0.95 1.00 0.90 0.87 0.97 0.98 1.06 1.13 1.15 1.14 1.14 1.15 1.20 1.23 1.18 1.09 1.04
1.45 1.85 2.19 1.66 1.44 1.27 1.50 1.92 1.63 1.49 1.43 1.38 1.25 1.26 1.31 1.34 1.33 1.33 1.24 1.20 1.19 1.15 1.16 1.23 1.22 1.26 1.28 1.23 1.15 1.12 1.05 1.01 1.03 1.02 0.97 0.92 0.92 1.01 1.23 1.28 1.14 1.19 1.28 1.32 1.38 1.34 1.27 1.20 1.20
1.90 1.99 1.93 1.66 1.34 1.21 1.43 1.66 1.54 1.48 1.46 1.37 1.15 1.06 1.10 1.15 1.19 1.22 1.18 1.18 1.16 1.13 1.12 1.16 1.17 1.37 1.42 1.37 1.37 1.31 1.21 1.23 1.25 1.24 1.20 1.11 1.03 1.15 1.39 1.48 1.33 1.28 1.45 1.42 1.32 1.37 1.46 1.45 1.50
1.61 1.41 1.35 1.46 1.26 1.19 1.33 1.29 1.34 1.34 1.28 1.18 1.06 0.98 1.02 1.01 1.01 0.98 0.95 1.07 1.03 0.98 0.99 1.07 1.16 1.28 1.42 1.57 1.64 1.63 1.55 1.51 1.62 1.66 1.60 1.41 1.33 1.36 1.56 1.71 1.65 1.56 1.71 1.74 1.61 1.73 1.83 1.77 1.83
1.05 1.09 1.16 1.16 1.01 1.13 1.20 1.15 1.23 1.19 1.15 1.00 0.91 0.86 0.87 0.84 0.86 0.85 0.85 0.92 0.89 0.80 0.76 0.87 1.09 1.28 1.43 1.58 1.76 1.94 2.06 2.11 2.04 1.98 1.99 1.90 1.71 1.77 1.91 1.90 2.13 2.18 2.16 2.21 2.16 2.33 2.41 2.15 2.00
0.97 1.05 1.11 1.05 0.89 0.99 1.06 1.09 1.15 1.07 0.99 0.83 0.77 0.74 0.72 0.70 0.74 0.76 0.73 0.71 0.70 0.70 0.71 0.81 1.00 1.29 1.49 1.67 1.89 2.09 2.44 2.58 2.50 2.47 2.32 2.23 2.12 2.15 2.05 2.15 2.40 2.43 2.54 2.63 2.49 2.68 2.83 2.52 2.23
0.95 0.93 0.96 0.98 1.01 1.02 1.02 1.20 1.24 1.12 0.96 0.80 0.68 0.62 0.60 0.56 0.61 0.65 0.62 0.60 0.56 0.56 0.63 0.75 0.88 1.10 1.43 1.76 2.03 2.24 2.48 2.74 2.81 2.67 2.58 2.50 2.51 2.54 2.43 2.39 2.54 2.58 2.67 2.86 2.88 2.86 3.05 3.02 2.68
1.05 0.70 0.66 0.74 0.99 1.27 1.04 1.44 1.22 1.06 0.97 0.79 0.70 0.65 0.60 0.60 0.61 0.61 0.60 0.60 0.56 0.60 0.68 0.80 0.89 1.03 1.23 1.49 1.88 2.25 2.53 2.87 2.88 2.72 2.70 2.70 2.70 2.69 2.62 2.58 2.67 2.71 2.69 2.79 2.84 2.84 3.17 3.45 3.26
0.78 0.54 0.58 0.72 0.82 0.91 0.78 1.08 1.11 0.91 0.99 0.89 0.79 0.76 0.69 0.62 0.64 0.62 0.61 0.61 0.64 0.68 0.73 0.86 0.96 1.10 1.25 1.50 1.83 2.20 2.46 2.70 2.87 2.81 2.66 2.58 2.62 2.50 2.37 2.46 2.62 2.64 2.66 2.67 2.83 2.96 3.26 3.34 3.30
0.58 0.61 0.67 0.71 0.83 1.01 0.62 0.82 1.06 0.97 0.90 0.89 0.83 0.82 0.72 0.58 0.63 0.66 0.70 0.71 0.71 0.76 0.85 0.97 1.11 1.28 1.43 1.55 1.67 1.82 2.03 2.35 2.51 2.63 2.63 2.61 2.61 2.44 2.25 2.30 2.37 2.46 2.53 2.50 2.55 2.75 2.95 3.21 3.37
0.61 0.92 1.27 1.24 1.20 1.02 0.51 0.72 0.97 0.80 0.69 0.69 0.69 0.71 0.71 0.68 0.71 0.79 0.87 0.87 0.86 0.87 1.03 1.15 1.25 1.31 1.37 1.35 1.41 1.53 1.71 1.96 2.09 2.17 2.32 2.38 2.44 2.41 2.37 2.26 2.26 2.29 2.34 2.44 2.64 2.65 2.73 2.93 3.16
0.59 0.78 1.28 1.37 1.16 0.94 0.72 0.97 1.03 0.73 0.60 0.59 0.60 0.60 0.65 0.75 0.84 0.97 1.10 1.14 1.08 1.07 1.11 1.14 1.22 1.20 1.19 1.24 1.30 1.39 1.51 1.68 1.76 1.83 1.95 2.03 2.00 1.97 1.97 2.01 2.09 2.19 2.24 2.32 2.48 2.57 2.60 2.66 2.73
0.54 0.51 0.55 0.83 0.80 0.92 0.89 1.00 0.97 0.68 0.56 0.57 0.62 0.63 0.68 0.83 0.97 1.14 1.32 1.36 1.26 1.20 1.17 1.21 1.30 1.25 1.17 1.22 1.35 1.42 1.46 1.47 1.49 1.55 1.50 1.52 1.57 1.58 1.60 1.63 1.78 1.96 2.06 2.11 2.23 2.39 2.39 2.47 2.50
0.37 0.43 0.59 0.96 1.22 1.26 1.04 1.06 1.13 0.84 0.64 0.62 0.71 0.84 0.93 1.09 1.19 1.34 1.45 1.43 1.39 1.43 1.41 1.27 1.25 1.29 1.24 1.36 1.43 1.41 1.39 1.35 1.37 1.39 1.41 1.36 1.44 1.52 1.58 1.59 1.60 1.71 1.79 1.89 2.04 2.14 2.22 2.28 2.26
0.34 0.43 0.64 0.95 1.03 1.36 1.54 1.45 0.99 0.83 0.76 0.75 0.82 1.10 1.20 1.28 1.37 1.43 1.50 1.48 1.37 1.37 1.36 1.34 1.30 1.28 1.30 1.36 1.42 1.33 1.33 1.35 1.34 1.32 1.38 1.42 1.46 1.55 1.57 1.60 1.62 1.63 1.70 1.76 1.84 1.94 2.06 2.06 2.06
0.45 0.59 0.80 1.27 1.26 1.16 1.57 1.62 1.01 0.85 0.85 0.86 0.88 0.94 1.03 1.25 1.35 1.37 1.48 1.45 1.35 1.32 1.22 1.25 1.34 1.34 1.41 1.44 1.37 1.32 1.41 1.46 1.52 1.50 1.46 1.46 1.44 1.42 1.47 1.57 1.52 1.50 1.56 1.64 1.75 1.83 1.85 1.89 1.83